Theta_e
336 330 333 338 339 341 341 341 341 342 338 336 333 332 336 332 326 318 315 315 320 327 334 340 343 343 343 343 342 341 342 341 341 342 343 343 342 342 341 339 334 331 330 330 329 329 330 328 330 333 333 332 332 333 334 335 335 332 331 333 333 333 332 331 331 332 334 334 336 336 336 336 337 336 334 332 330 330 331 331 332 332 333 332 331
337 334 337 338 339 342 341 340 341 342 338 334 333 334 335 328 320 314 315 320 326 334 339 342 343 343 343 343 342 342 341 341 341 341 342 343 342 342 340 336 333 333 332 331 330 331 332 332 333 335 334 333 333 331 333 335 335 333 332 334 336 334 330 329 329 329 329 328 332 336 336 337 337 335 334 332 331 331 331 331 330 330 331 331 330
332 335 339 338 340 342 340 340 342 340 335 333 334 334 331 322 316 318 327 333 338 341 342 343 343 343 342 342 342 342 341 341 341 341 342 342 342 343 341 338 337 338 335 333 332 332 332 333 334 334 334 334 332 328 331 335 335 336 335 336 336 335 333 333 334 332 330 328 328 332 334 335 335 334 333 333 332 332 332 332 330 328 328 327 328
328 333 339 339 339 342 340 340 341 338 334 334 333 332 326 320 322 333 341 342 343 342 342 343 343 343 343 343 342 342 342 342 342 342 342 342 342 342 342 340 340 339 338 336 334 333 332 332 333 333 333 332 328 326 331 334 334 335 335 336 336 336 336 337 336 335 335 333 328 325 327 328 331 333 333 333 334 334 333 333 332 329 329 328 328
328 332 338 339 339 342 340 339 340 337 334 333 331 328 323 324 334 341 343 342 343 342 342 342 343 343 343 343 342 342 341 341 341 342 342 342 342 341 341 340 340 340 340 337 333 334 334 332 332 331 329 328 327 327 331 333 333 333 333 335 335 336 337 337 337 337 338 337 332 326 325 325 329 334 335 334 334 334 334 334 332 329 329 330 330
327 332 336 338 340 341 339 339 339 338 335 332 329 325 324 333 340 341 342 342 343 342 342 342 342 342 342 343 342 341 341 341 341 342 342 342 342 342 341 340 340 340 339 337 333 333 333 332 332 329 324 326 328 329 331 332 332 332 332 333 334 335 336 336 337 337 337 337 335 330 328 329 330 334 335 334 334 333 334 333 332 330 328 329 331
325 329 332 334 339 339 339 339 340 340 335 331 328 326 330 338 341 340 341 343 343 342 342 342 342 342 342 342 342 342 341 341 341 341 342 342 342 342 341 341 340 340 340 337 333 333 334 332 331 327 324 327 330 331 332 332 332 332 333 333 334 334 334 335 334 335 336 337 336 333 330 328 328 333 335 335 334 332 333 333 333 332 328 328 331
323 326 326 329 336 338 339 340 340 339 333 330 329 330 337 341 341 341 342 343 343 342 342 342 342 342 342 342 343 342 341 341 341 341 341 341 341 341 341 341 341 340 339 334 330 332 333 331 328 325 325 330 331 332 333 333 333 333 333 333 333 333 333 333 333 334 336 337 337 335 331 326 325 330 335 336 334 333 333 332 331 330 327 328 331
323 323 321 326 335 338 339 340 339 336 332 332 331 335 341 343 342 342 343 343 343 343 343 342 342 342 342 342 342 342 342 342 341 341 341 342 341 341 341 340 340 338 334 329 327 329 330 329 326 323 326 331 332 333 333 333 333 333 333 333 333 332 332 332 333 335 336 336 336 334 330 326 324 327 332 333 334 334 332 332 331 328 327 330 331
322 322 321 326 335 337 338 338 338 334 332 334 336 340 343 343 342 343 342 343 343 343 343 343 343 342 342 340 339 339 338 339 339 340 340 340 340 339 340 340 339 338 333 328 327 328 329 328 325 322 323 328 330 332 332 332 332 333 333 332 333 332 332 332 333 335 335 336 334 333 330 326 323 325 329 330 332 333 332 332 329 327 328 330 330
326 324 323 328 335 336 336 337 336 334 334 337 340 342 343 343 342 343 342 343 343 343 343 342 342 341 340 337 334 332 330 330 331 334 336 337 338 337 338 338 337 337 334 328 327 327 329 329 327 322 319 323 327 330 331 331 332 333 332 332 333 332 332 332 333 334 334 334 333 332 331 326 322 322 325 326 328 329 329 328 325 326 330 328 327
331 327 327 331 335 335 335 336 336 336 337 340 341 342 343 342 342 342 343 343 343 343 342 341 341 339 337 333 331 330 328 326 323 324 328 330 332 333 334 335 335 334 332 327 326 327 329 329 328 325 319 319 325 329 331 331 331 332 333 332 332 331 332 333 333 333 333 333 332 334 332 326 324 322 321 322 324 326 327 326 322 326 331 328 327
328 327 329 333 334 335 335 337 338 338 339 340 342 343 343 343 343 343 343 343 342 342 341 340 339 337 334 333 332 332 329 326 323 320 318 319 320 322 327 331 331 330 330 327 327 326 328 330 329 327 322 320 324 329 330 331 331 332 332 332 332 332 333 334 334 333 333 333 334 334 331 329 327 322 320 320 323 325 327 326 323 326 330 328 328
323 326 328 329 334 337 336 337 338 338 340 341 343 343 342 343 343 343 343 342 341 341 340 338 336 335 334 334 334 331 329 325 321 318 314 312 312 313 318 323 325 328 330 328 326 326 328 331 330 329 325 321 323 328 330 330 332 332 331 332 333 333 334 334 334 334 333 334 335 333 331 331 328 322 320 320 322 324 325 326 324 325 326 327 327
319 324 327 331 336 338 336 336 337 339 342 342 343 342 342 343 343 342 342 341 340 339 338 336 336 336 336 334 333 330 328 324 320 316 312 310 309 310 312 315 321 325 326 325 323 325 328 331 331 330 328 323 321 324 328 330 332 331 332 333 334 333 334 334 333 333 332 335 335 332 332 331 328 324 320 319 320 322 324 325 326 325 325 327 328
322 328 333 336 337 338 338 338 339 341 342 343 343 342 343 342 342 341 341 340 340 338 337 336 336 336 335 333 331 329 326 321 319 315 311 309 308 309 310 312 317 320 321 320 319 324 327 331 332 330 329 326 322 322 325 330 331 330 333 334 333 334 334 334 333 333 331 332 334 333 332 330 329 325 320 319 319 320 323 325 326 326 326 328 329
332 335 337 337 339 341 341 342 342 342 343 343 342 342 342 342 342 341 340 340 339 338 337 337 337 335 332 330 329 326 323 321 319 317 314 311 309 309 310 310 313 316 317 315 317 324 328 330 331 331 330 328 325 322 323 325 327 328 333 334 334 334 334 335 336 335 331 329 332 333 331 331 330 324 321 320 319 320 322 324 326 327 327 327 327
338 339 338 338 340 341 341 343 342 342 342 342 342 342 342 342 341 341 340 339 339 338 337 337 335 333 330 329 327 324 322 322 322 322 320 316 312 310 310 310 311 312 313 313 318 324 327 330 330 330 330 329 327 325 324 323 322 326 332 334 333 334 334 335 335 335 333 331 331 332 331 331 330 325 322 322 322 322 322 323 324 326 327 327 325
340 339 339 340 340 341 342 342 342 342 342 342 342 342 342 341 341 340 340 339 338 337 336 335 332 331 331 329 326 325 324 323 323 324 324 322 319 314 311 311 310 310 311 312 320 325 326 329 329 330 330 329 329 328 326 324 322 324 328 331 333 334 333 332 335 335 333 333 332 332 332 331 330 327 324 323 323 324 324 325 324 325 326 326 325
340 339 339 340 341 342 342 341 341 342 342 342 342 342 342 341 341 340 339 338 337 335 334 333 331 331 333 333 330 330 329 326 326 325 325 325 324 320 315 312 311 310 312 315 321 325 325 327 328 328 328 328 329 328 328 327 325 324 326 328 329 331 328 326 333 336 332 333 333 333 332 330 330 328 325 325 325 325 325 326 326 326 326 327 326
340 339 339 340 341 341 341 341 341 342 342 342 342 342 341 340 340 339 338 337 335 334 332 332 331 331 334 336 335 334 333 333 331 326 324 325 326 325 323 319 316 312 313 316 320 323 324 325 326 327 327 327 328 329 330 330 330 329 329 330 327 326 326 327 332 336 335 333 333 332 331 330 330 329 327 327 328 327 326 326 327 327 327 328 328
339 339 338 339 340 340 341 341 341 342 342 342 342 341 341 340 339 338 337 335 333 331 330 332 333 334 336 338 338 337 336 336 337 331 325 325 325 325 327 327 325 320 317 316 317 319 320 322 323 323 324 325 326 329 331 333 334 334 333 333 330 329 330 332 334 335 336 335 332 331 331 332 332 330 329 329 330 329 327 327 327 328 328 328 328
339 338 337 337 339 340 340 341 341 341 341 341 341 340 340 339 338 337 335 331 330 329 328 332 335 336 337 339 340 339 338 338 340 337 330 329 330 328 329 329 330 330 328 326 324 323 323 324 326 325 323 322 324 328 331 332 333 334 334 334 333 334 334 335 335 335 336 336 334 332 332 333 333 331 331 331 331 331 330 328 327 328 329 329 329
340 338 336 337 338 339 339 339 340 340 340 340 340 340 339 338 337 336 333 330 331 332 331 333 335 337 338 340 340 339 340 339 340 340 335 334 336 335 335 334 333 333 334 334 333 332 332 332 333 333 331 328 328 330 331 332 332 332 333 335 334 334 333 334 335 336 336 336 335 333 333 333 333 332 332 332 332 331 331 329 328 328 329 329 329
340 338 336 337 338 337 337 337 336 337 338 339 339 339 338 337 337 334 334 335 335 337 336 337 337 338 340 340 339 338 339 339 339 340 337 336 338 338 338 338 337 336 337 337 336 336 336 336 336 336 335 335 334 334 333 334 333 332 332 333 334 332 332 332 333 334 334 334 334 334 333 333 332 333 332 333 332 332 331 330 328 329 329 330 330
341 339 338 338 338 336 336 335 333 333 336 338 338 338 337 337 335 333 334 337 337 338 339 340 339 339 340 340 340 339 338 338 338 338 338 337 338 338 337 338 337 337 338 338 338 338 337 337 336 335 335 335 335 335 335 335 334 333 332 333 333 333 333 333 333 333 332 332 333 333 333 332 332 332 333 333 333 332 332 330 329 330 330 330 331
341 340 339 341 339 337 337 336 335 334 335 336 337 337 337 336 334 333 335 337 337 339 340 340 340 339 340 340 339 339 338 338 338 338 338 339 338 337 338 338 337 336 337 338 339 338 337 337 337 336 336 337 337 336 337 336 336 335 333 333 334 334 334 334 334 334 333 333 333 333 333 332 333 333 334 333 333 333 333 332 331 330 331 331 331
341 341 341 342 340 339 338 337 336 335 334 335 336 336 336 335 336 336 337 337 337 338 339 340 340 340 340 339 339 339 339 338 339 339 338 338 338 338 339 338 337 337 337 338 338 338 338 338 338 338 338 338 338 338 337 337 337 336 335 335 335 334 334 334 334 334 334 333 333 334 334 334 334 334 333 333 333 333 334 333 332 331 331 331 331
340 341 341 342 340 339 338 337 336 334 333 334 334 335 336 336 337 338 338 338 338 338 339 339 339 339 339 339 339 339 339 338 338 338 338 339 338 339 339 339 338 338 338 338 338 339 339 339 338 338 338 338 338 338 336 336 336 336 335 335 335 335 335 335 334 334 334 333 334 334 334 334 334 334 333 333 333 333 333 333 333 332 332 332 333
340 341 341 341 340 338 338 338 336 333 333 334 334 335 336 337 337 339 339 339 339 339 339 339 338 339 340 340 340 339 339 339 338 338 338 339 339 339 339 339 338 339 339 339 339 339 338 338 338 338 337 337 337 337 336 336 336 335 335 335 335 335 335 335 335 335 334 334 334 334 334 334 334 334 334 334 333 333 333 333 333 332 333 334 335
341 341 340 339 339 339 339 338 337 335 335 335 335 335 336 337 338 339 339 339 339 339 339 338 337 339 340 340 339 339 339 339 338 338 338 339 339 339 339 338 339 339 339 339 339 339 339 338 338 338 338 337 336 336 337 336 336 336 335 335 335 335 335 336 335 335 335 335 335 335 335 335 335 335 334 334 334 333 334 333 333 333 333 334 335
341 341 340 340 340 340 339 339 337 336 336 335 336 336 337 338 339 338 339 339 339 339 338 337 338 340 341 340 338 338 338 338 339 339 339 339 339 339 339 339 339 340 339 340 340 339 339 338 338 338 338 337 337 337 337 336 336 336 335 335 336 336 336 336 335 335 335 336 336 336 336 336 336 336 335 335 335 334 334 335 334 334 334 334 334
340 340 340 339 338 337 337 337 336 336 336 336 337 338 337 338 338 338 339 339 339 338 337 337 338 339 339 339 338 337 337 338 339 339 339 339 338 338 338 338 339 339 339 340 340 339 338 339 338 338 338 337 336 335 336 336 336 336 335 336 336 336 336 336 336 336 336 337 337 337 337 337 337 336 336 336 336 336 336 336 336 335 335 334 334
337 337 337 336 336 335 335 336 335 335 335 336 338 338 338 338 338 338 339 339 338 338 338 337 338 338 337 338 337 337 337 336 337 338 338 338 338 338 338 338 339 339 339 339 339 339 338 338 338 337 336 335 335 335 335 335 336 336 335 335 336 336 336 336 336 336 336 336 336 337 336 337 337 337 337 337 337 337 337 337 337 336 336 335 335
335 334 335 334 335 335 335 336 335 335 334 335 337 337 337 337 337 338 338 338 337 338 338 338 338 337 337 337 336 337 337 336 337 338 338 337 337 338 338 338 339 339 338 337 338 338 338 338 337 336 336 335 335 336 336 336 336 335 335 335 335 335 335 336 336 336 336 336 336 337 337 337 337 337 337 337 337 337 337 337 337 336 336 336 336
335 334 335 335 335 335 335 335 335 335 335 335 336 337 338 337 338 338 338 338 337 338 338 337 337 336 336 336 336 337 336 337 338 338 338 338 337 338 338 338 338 337 337 337 337 337 337 336 336 336 335 335 335 335 335 335 335 335 335 335 334 334 334 334 334 334 335 335 336 337 337 337 336 336 336 336 336 335 336 337 336 336 336 336 336
335 334 335 335 336 335 335 335 335 335 336 337 337 337 338 338 338 338 338 338 338 337 337 336 336 336 336 336 336 336 337 338 338 338 338 337 337 337 337 337 336 336 336 336 335 335 335 335 335 335 334 334 333 333 333 333 333 334 334 333 333 333 332 332 333 333 333 334 337 338 337 336 336 335 335 335 335 334 335 336 336 335 335 335 334
335 334 335 336 335 336 336 335 336 336 337 337 338 338 338 338 338 338 338 338 337 336 336 335 335 335 336 336 336 336 337 337 337 337 336 336 336 335 335 335 335 335 335 334 334 333 333 333 334 333 332 332 330 330 330 330 331 332 332 333 332 331 331 332 333 333 334 334 335 335 334 333 332 332 332 333 334 334 334 334 334 333 333 334 334
335 335 335 335 335 336 336 336 337 337 338 338 337 337 338 338 337 337 337 336 335 335 335 335 335 335 335 335 335 336 336 336 336 336 335 335 335 334 334 334 334 334 333 332 332 331 332 331 331 331 330 329 328 327 327 328 329 330 331 331 330 329 330 333 331 331 331 330 330 330 329 328 327 328 328 328 329 330 329 329 328 327 328 329 330
336 336 335 336 336 337 337 338 338 338 338 337 337 337 337 336 336 335 335 335 335 335 334 334 334 334 334 335 335 335 335 335 335 335 334 334 334 333 332 332 332 332 332 330 329 328 329 328 328 328 328 328 327 326 326 327 328 328 328 328 328 327 330 332 329 328 328 327 326 326 326 326 324 325 324 323 324 324 323 323 322 323 325 326 327
336 336 336 337 337 337 338 338 338 338 338 337 337 337 336 335 335 335 334 334 334 334 333 332 332 333 333 334 334 334 333 333 332 332 332 331 331 331 330 329 330 330 328 327 326 326 326 326 325 325 326 325 324 324 324 325 326 326 326 327 326 326 330 333 329 325 325 325 324 323 323 323 321 321 321 321 321 320 319 318 318 322 324 324 325
336 337 337 337 337 337 337 337 338 338 338 338 337 336 336 335 335 334 333 333 332 332 332 331 331 331 332 332 332 332 331 330 329 329 328 328 327 327 326 325 326 326 325 324 323 323 323 323 323 323 323 323 322 321 321 323 323 322 324 327 327 327 328 329 326 324 323 324 323 321 321 319 317 317 317 318 317 315 314 314 316 320 322 322 324
336 336 336 336 336 336 336 337 337 337 337 337 336 335 335 334 334 334 333 332 331 331 330 330 330 330 330 329 329 328 328 327 326 325 325 324 324 324 323 323 323 323 323 322 322 321 321 321 321 321 321 321 320 319 319 320 320 320 324 328 329 329 329 325 322 322 323 322 321 319 318 314 313 314 312 311 309 309 310 310 314 318 317 318 322
336 336 336 336 336 336 336 337 336 336 336 335 335 334 334 334 334 334 333 331 329 329 329 328 328 328 327 325 325 324 324 323 323 322 322 322 322 322 321 321 321 320 320 320 320 319 319 318 318 319 319 319 318 316 317 317 318 320 323 326 325 326 328 323 319 321 321 321 319 317 314 309 310 311 307 305 305 306 308 309 313 315 312 316 319
337 337 337 336 336 336 336 336 336 335 335 334 334 334 333 334 334 333 332 330 328 328 327 325 325 325 323 322 321 321 321 321 320 320 320 320 320 320 319 319 319 318 318 318 318 317 316 316 316 317 317 317 316 314 315 315 316 317 319 321 322 322 322 319 319 322 320 319 318 314 309 307 309 309 305 302 304 306 307 308 311 311 307 313 317
337 337 337 337 336 335 335 335 335 335 334 334 333 333 333 334 333 331 330 328 327 326 325 324 323 322 321 320 319 319 319 318 318 318 318 318 318 318 318 318 317 317 317 317 316 315 314 314 315 315 315 314 313 312 312 312 313 314 315 316 318 318 317 316 318 320 317 316 316 311 307 308 309 308 304 302 303 304 306 308 309 306 305 309 311
337 337 337 336 335 335 334 334 334 335 334 333 333 333 334 334 333 332 330 329 327 324 323 323 322 321 319 319 318 318 318 317 317 317 317 317 317 317 317 316 316 315 315 314 313 311 311 312 312 312 311 311 310 310 310 311 311 312 313 314 314 312 311 312 313 315 315 314 312 309 308 308 308 307 304 302 303 303 305 306 305 303 304 307 306
336 337 336 335 334 335 335 334 334 334 334 334 333 333 334 333 332 331 330 329 327 324 322 322 321 319 318 318 318 317 316 316 316 315 315 315 315 316 316 315 314 313 311 310 310 310 310 310 310 310 310 310 310 310 311 310 310 311 312 312 312 310 308 308 309 311 313 312 310 308 307 307 306 305 303 301 302 302 304 304 302 301 303 304 303
336 336 335 334 333 334 334 334 333 333 334 334 333 334 334 333 332 331 329 328 326 323 322 321 319 318 317 316 316 315 315 315 315 314 314 314 314 314 314 314 313 311 310 310 311 311 310 310 311 310 310 310 310 310 310 309 310 310 310 310 310 308 307 306 306 308 309 310 309 307 306 305 304 303 302 300 301 301 303 302 301 301 302 302 301
335 335 333 333 332 332 332 332 331 331 332 333 334 334 334 333 332 330 328 327 325 323 321 319 318 317 316 314 314 313 313 313 313 313 312 312 312 313 313 313 313 311 311 311 311 311 310 310 310 310 310 309 309 308 308 308 308 308 308 307 307 307 306 305 305 306 307 307 307 306 305 303 302 302 301 300 300 301 302 301 300 301 301 300 299
334 333 332 331 330 330 330 329 329 330 331 333 334 333 333 332 331 329 328 326 324 322 320 318 317 315 314 313 312 311 311 311 311 311 310 311 312 312 312 312 311 311 311 311 311 311 310 309 309 309 308 308 308 308 307 307 306 306 305 305 305 305 304 304 304 304 304 304 304 303 302 301 301 301 300 299 299 299 301 300 299 300 300 299 299
Wind_Speed
21 21 20 18 17 17 16 17 16 17 21 21 20 19 18 16 16 17 18 19 18 17 16 15 15 15 15 16 16 16 16 16 16 15 15 14 14 15 15 14 13 13 13 13 13 13 13 13 13 11 11 10 11 13 15 15 15 15 16 16 16 17 17 17 17 16 15 14 14 15 14 14 13 12 12 12 13 14 14 14 14 14 14 13 13
22 21 20 18 18 17 17 17 17 18 21 21 20 19 17 16 17 18 19 20 19 18 16 15 15 15 15 15 16 16 16 16 15 15 14 14 14 14 14 13 13 12 12 13 12 13 13 13 12 12 11 10 11 13 15 15 16 16 17 17 16 17 18 19 19 17 15 13 13 14 13 12 12 11 10 11 12 13 13 12 12 12 12 11 11
25 23 20 18 18 17 17 17 17 19 21 22 20 18 17 17 18 19 19 19 19 18 16 16 15 14 14 15 15 16 15 15 15 14 14 13 14 13 12 12 12 12 12 12 11 13 13 12 12 11 11 11 11 14 16 15 16 15 16 17 16 16 17 18 17 17 16 14 12 11 12 11 11 10 10 11 12 12 11 11 11 11 11 11 12
26 25 20 18 17 18 17 17 18 20 22 21 20 18 17 18 19 19 19 18 18 18 17 16 15 14 14 14 15 15 15 14 14 14 13 12 12 13 12 11 12 11 12 12 11 12 12 12 12 11 11 12 14 16 18 18 18 17 16 16 15 15 15 14 14 14 15 13 12 11 10 10 11 11 11 12 12 10 10 11 12 12 12 12 13
28 25 22 19 18 19 17 18 18 21 22 21 20 18 18 19 19 19 18 18 18 18 17 16 14 14 13 13 14 14 14 14 14 13 13 12 12 12 11 11 11 11 11 11 11 11 11 11 12 12 12 14 17 18 19 18 18 18 16 15 15 15 14 13 10 8 10 9 9 10 11 10 11 12 11 12 11 11 11 11 11 11 12 12 13
28 25 24 21 20 19 18 19 18 20 22 20 19 18 18 19 19 19 18 18 18 17 17 16 14 13 13 13 13 13 13 13 14 13 12 12 11 10 10 10 10 10 11 10 9 10 10 10 11 12 13 17 19 19 19 17 16 16 15 15 14 13 12 11 8 5 7 6 4 7 9 9 10 11 10 10 10 11 10 9 10 10 11 12 12
27 26 24 22 22 19 18 19 18 19 21 20 19 18 18 18 18 19 18 17 17 17 16 15 14 13 13 12 13 13 13 13 13 12 12 11 10 9 9 9 9 9 10 8 8 10 10 9 10 12 14 18 20 19 18 17 16 15 14 13 12 11 10 8 6 4 5 5 3 3 6 7 8 9 9 8 8 9 9 8 7 7 9 11 11
27 26 24 23 22 19 19 19 18 20 20 20 18 18 17 17 18 18 18 17 17 17 16 15 14 13 13 12 12 12 12 12 12 11 11 10 10 9 9 8 8 8 8 8 8 9 9 9 10 12 15 18 19 19 18 17 15 14 13 12 11 10 9 8 7 4 4 6 4 3 5 7 7 8 9 7 7 6 6 5 4 5 8 10 10
27 25 24 24 21 20 20 19 19 20 20 19 18 18 17 17 18 18 18 17 17 16 16 15 14 13 12 12 12 11 11 11 11 10 9 9 8 8 7 7 7 6 7 8 9 9 9 9 11 13 15 16 17 17 17 16 15 13 12 11 10 9 9 9 8 5 5 5 4 4 4 6 7 7 7 7 6 4 4 5 4 6 8 9 9
27 25 25 23 21 20 20 20 19 19 19 19 19 18 17 18 18 18 18 17 17 16 15 14 13 13 12 11 10 10 9 9 9 8 8 7 7 6 6 6 6 5 6 7 8 9 9 9 10 13 14 14 15 16 15 14 13 12 11 10 9 9 10 10 8 6 6 6 5 5 4 6 7 6 5 5 6 4 4 5 5 7 8 8 8
26 25 25 23 22 20 20 20 19 19 20 20 19 19 18 18 18 18 17 17 16 15 14 14 13 12 11 10 9 8 7 7 6 6 6 6 6 5 5 5 5 5 5 6 7 8 8 8 9 11 13 13 14 14 14 13 12 11 10 9 9 10 10 10 8 7 7 7 5 4 3 5 8 6 3 2 3 3 3 3 4 7 7 6 7
25 25 24 23 21 21 20 19 20 20 20 21 19 18 18 17 18 17 17 16 15 15 14 13 12 11 11 9 8 7 5 5 4 4 4 5 5 4 5 5 5 5 6 7 7 8 8 7 7 9 11 13 14 14 13 12 11 10 10 9 10 10 10 10 8 6 7 7 5 2 2 5 8 8 5 3 3 2 3 4 5 8 7 6 7
26 25 23 22 21 21 21 20 21 21 20 20 18 18 18 17 17 17 17 16 15 14 13 12 11 11 9 8 6 5 5 4 3 3 3 3 3 3 5 5 6 6 7 8 7 7 7 7 7 8 10 12 14 14 12 11 10 9 9 9 10 10 9 9 8 4 6 7 5 2 1 4 8 9 7 5 3 3 3 4 5 7 5 5 5
27 25 24 23 21 20 20 21 20 20 20 18 18 18 17 17 16 16 16 15 15 14 12 11 10 10 8 6 5 4 4 4 3 3 3 2 2 3 5 6 7 7 8 8 7 7 7 7 6 7 8 9 12 12 11 10 9 9 8 8 8 8 9 9 8 3 5 7 6 3 1 4 7 9 7 5 3 3 2 3 4 4 3 4 4
28 27 25 23 21 19 19 19 19 19 18 18 18 18 17 17 16 16 16 15 14 13 12 11 10 8 6 5 4 4 4 4 4 3 3 3 3 3 4 6 7 8 8 8 7 7 7 7 6 6 8 8 8 9 9 9 8 7 7 6 7 8 8 8 8 4 3 8 7 4 2 4 6 9 8 6 4 4 3 3 4 3 4 4 4
29 28 26 24 22 20 18 18 18 18 18 18 17 17 17 16 16 16 15 14 13 12 11 10 8 7 5 5 4 5 5 6 7 6 6 6 6 5 4 5 6 8 8 8 8 7 7 7 7 6 7 7 7 7 7 7 7 5 5 5 6 7 7 8 8 6 1 7 8 5 3 4 6 8 8 6 5 5 4 4 4 3 3 4 3
28 27 25 23 22 20 19 17 17 17 17 17 16 16 16 16 15 15 14 13 12 11 10 8 7 6 6 5 5 6 7 7 9 9 9 9 8 7 6 5 5 6 7 8 8 8 7 7 7 6 6 7 7 6 5 5 4 4 4 4 5 5 5 6 7 7 3 5 7 6 4 3 6 7 7 7 6 6 5 4 3 3 3 2 1
27 25 24 22 21 20 19 17 16 17 16 16 15 15 15 15 15 14 13 12 11 9 8 8 7 7 7 7 7 7 7 8 9 10 11 11 10 9 7 6 6 6 7 8 9 8 7 7 7 6 6 6 6 6 5 4 3 3 4 3 3 4 4 5 6 7 4 4 7 7 5 4 5 6 7 7 7 7 7 6 4 2 2 2 2
25 24 23 21 21 19 18 17 17 17 17 16 15 14 14 15 14 13 12 10 9 8 8 7 7 8 9 9 8 8 8 9 9 10 11 11 11 11 9 8 7 7 8 9 9 8 7 6 6 6 5 5 4 5 5 5 4 3 3 2 2 1 2 4 5 7 6 3 6 8 6 4 5 5 6 7 8 8 8 7 5 3 3 3 3
24 23 21 20 20 19 18 17 17 17 17 17 15 14 14 14 13 12 11 10 9 8 8 8 9 10 10 10 9 9 9 8 9 9 10 10 11 11 11 10 9 8 8 9 9 7 6 5 4 4 3 3 2 3 3 4 3 3 1 1 2 3 5 6 5 6 6 3 5 8 7 5 5 5 6 7 9 9 9 8 7 5 4 5 3
22 21 20 20 19 18 17 17 17 16 17 16 15 14 14 13 13 12 11 10 9 9 8 9 9 9 9 8 8 8 8 8 8 8 8 9 9 10 10 11 10 9 8 8 7 5 4 3 2 1 0 1 1 0 2 3 2 1 2 3 4 4 6 7 5 6 7 4 4 7 8 7 5 5 6 7 9 9 10 9 8 7 5 5 3
20 20 19 20 20 18 17 17 16 16 16 16 16 15 14 14 13 13 11 10 10 9 9 9 9 8 7 6 6 5 6 7 7 7 7 7 7 7 7 9 9 9 8 6 5 4 3 2 1 1 2 2 2 1 2 1 4 4 4 5 4 3 4 4 5 7 9 7 6 8 9 8 7 7 7 8 9 10 10 10 10 8 6 4 5
21 20 20 21 20 19 17 17 17 17 17 17 17 16 15 15 14 13 12 11 10 10 10 10 9 8 6 5 3 3 3 5 5 6 7 7 6 6 5 5 6 7 6 6 4 3 2 1 2 3 3 3 3 3 3 5 7 7 6 6 6 5 5 5 6 7 9 10 8 8 9 9 9 8 8 9 10 10 11 11 11 9 7 5 7
24 22 22 22 20 19 18 18 18 18 18 18 18 17 17 16 15 13 12 12 11 11 11 10 9 7 6 4 3 2 2 3 3 3 3 5 5 5 4 3 3 3 3 3 3 3 2 3 3 4 5 5 5 6 7 9 11 11 9 7 7 7 7 8 9 9 10 11 10 9 9 9 9 9 10 11 11 12 12 12 12 10 9 7 7
27 24 23 22 20 19 19 19 19 19 20 20 19 18 17 16 14 13 13 12 11 10 9 8 7 6 6 5 3 2 2 1 1 0 2 3 4 3 3 3 3 3 3 2 1 2 3 3 4 4 5 7 8 9 10 12 13 13 12 10 8 8 9 10 11 12 12 12 9 8 9 10 10 11 11 12 13 13 13 13 12 12 11 10 9
26 25 25 23 20 20 19 19 18 19 20 22 20 18 17 16 13 13 13 11 10 8 7 6 7 8 7 6 5 3 2 2 2 2 4 4 3 2 2 3 4 4 3 3 3 4 5 5 5 5 6 8 9 9 10 12 13 12 11 10 10 10 11 12 13 13 14 12 10 9 10 11 11 12 12 13 15 15 15 14 14 13 13 13 11
28 27 27 24 22 21 19 19 18 17 18 21 20 19 17 14 12 12 12 10 9 7 7 8 10 10 8 7 5 4 3 3 3 3 4 4 3 2 3 3 4 4 4 4 4 5 5 6 7 7 7 9 9 9 10 10 10 10 9 9 10 10 12 14 14 15 15 13 11 11 12 12 13 13 14 16 16 16 16 15 15 15 14 14 14
31 30 29 27 25 22 21 20 18 15 16 19 21 19 16 14 11 10 10 9 8 6 9 11 10 9 8 6 5 4 3 3 2 2 2 2 2 2 3 4 4 4 5 5 4 4 4 5 6 7 8 8 8 9 9 9 9 10 9 10 10 11 12 14 14 15 15 14 13 13 12 13 14 15 16 17 18 17 17 17 16 16 15 15 15
32 33 31 30 28 25 22 21 17 15 16 20 21 18 16 14 11 10 8 7 7 7 11 11 8 7 6 5 4 4 3 2 2 1 1 1 1 1 3 4 4 4 4 5 4 4 4 5 6 6 7 6 7 8 8 8 8 9 9 10 11 11 11 13 13 14 15 16 16 16 15 15 16 17 18 18 18 18 18 19 18 18 17 17 16
31 32 32 32 30 26 24 21 17 16 18 21 21 17 17 16 14 14 11 9 10 11 13 11 8 8 7 6 6 6 6 5 5 4 3 2 1 2 2 3 4 4 4 4 4 5 5 5 5 5 5 6 7 8 8 8 8 8 9 10 11 11 11 12 12 12 12 13 15 16 15 16 16 17 18 18 18 17 18 19 18 19 18 18 16
30 31 33 32 31 28 26 24 20 19 21 21 20 19 19 18 16 16 13 12 15 15 13 10 9 9 7 8 9 9 8 8 8 6 4 3 2 2 2 2 3 3 4 5 4 5 5 5 5 4 5 6 7 8 8 9 8 8 9 10 11 12 13 13 12 11 11 11 12 13 14 14 15 15 17 17 17 17 17 17 17 17 18 18 17
30 31 32 32 31 29 28 27 23 22 22 22 21 20 20 19 17 16 14 15 16 14 12 10 11 9 7 8 9 9 9 9 10 7 4 3 2 1 0 0 1 2 4 4 4 4 4 4 4 4 5 7 8 8 8 9 9 9 9 10 11 12 13 14 14 13 12 12 12 13 14 14 14 14 15 16 16 16 16 16 16 16 17 18 18
28 29 30 31 31 29 28 26 23 23 24 23 22 21 20 19 17 16 15 15 15 14 12 10 11 9 8 8 8 8 9 9 10 8 5 2 1 1 1 2 1 2 2 3 4 4 3 3 3 4 6 7 8 8 8 9 9 9 9 10 10 11 12 13 14 14 14 14 14 14 15 15 14 14 14 15 15 16 16 16 17 16 16 17 18
27 28 30 30 29 28 27 25 23 23 23 21 21 21 19 18 17 16 15 14 14 13 10 9 10 9 8 9 8 8 9 9 8 9 7 3 0 1 1 2 1 2 1 3 4 3 3 3 4 5 6 7 8 8 9 9 9 10 10 11 11 12 12 13 13 14 14 14 15 15 15 16 16 15 15 15 16 16 16 17 17 17 16 16 18
29 29 29 28 27 26 26 24 22 21 20 18 19 20 18 18 17 15 14 13 13 11 9 9 9 8 8 9 10 9 9 8 7 9 9 5 2 2 3 3 3 2 1 1 2 2 2 3 5 6 6 7 7 7 8 9 9 10 10 11 11 12 12 13 13 13 14 14 14 14 14 14 14 15 15 16 16 16 17 17 17 16 16 16 17
31 30 27 26 26 26 25 23 21 19 18 17 18 19 18 17 15 13 13 12 12 11 9 9 8 8 9 9 10 9 10 10 10 10 10 7 5 5 5 5 4 3 3 2 2 2 3 4 5 6 7 8 8 8 8 9 10 10 11 10 10 10 11 12 13 13 13 13 14 14 14 14 14 15 16 17 18 18 18 17 16 16 16 16 17
31 29 26 26 26 24 23 21 20 18 18 18 19 18 17 16 14 13 12 12 11 11 10 10 9 9 9 9 10 12 14 14 14 12 11 9 8 8 7 6 4 4 4 4 5 5 5 5 5 6 7 8 9 9 9 10 11 11 11 10 10 10 11 13 13 12 12 12 13 14 14 15 16 16 18 18 19 20 18 17 16 17 18 19 19
29 28 26 26 25 23 21 20 19 17 18 19 19 17 17 16 15 14 13 13 12 12 12 12 12 12 12 13 13 15 15 15 14 12 11 10 8 7 7 6 5 5 5 5 6 6 6 5 5 6 7 8 9 11 12 12 11 12 11 11 10 10 10 11 10 10 10 10 11 11 12 14 15 16 17 18 17 17 17 17 19 20 21 21 22
25 25 24 24 23 20 19 19 18 18 19 20 19 17 17 16 16 15 15 15 14 14 16 17 18 17 16 16 15 14 13 12 11 10 9 8 7 6 6 5 5 5 5 5 6 6 6 6 6 5 6 7 9 11 12 12 12 12 12 11 10 8 7 7 10 13 13 14 13 12 13 15 18 19 20 20 18 18 18 18 20 22 22 21 21
21 22 21 22 21 19 19 19 18 18 19 20 19 18 18 18 18 17 18 18 18 19 20 20 20 18 17 15 14 13 11 10 10 8 7 6 4 4 4 5 4 5 5 5 6 7 6 7 7 5 6 6 9 12 13 14 13 13 13 11 8 7 3 5 9 14 15 16 16 15 15 17 20 21 22 22 22 22 22 22 24 26 27 26 23
18 19 19 20 20 19 19 19 19 18 19 20 19 19 20 20 20 21 23 23 22 22 21 20 20 18 16 14 13 11 10 10 9 7 5 4 3 2 2 4 3 3 3 4 5 6 6 6 6 6 7 7 10 14 15 14 12 13 13 12 11 7 1 1 6 14 17 17 17 18 18 20 22 22 22 22 23 24 25 25 26 27 29 30 28
18 18 18 19 19 18 19 19 18 18 19 19 19 20 20 21 23 25 25 24 23 22 21 19 18 17 14 12 11 10 9 9 8 7 5 4 4 4 3 4 3 3 3 4 4 5 6 6 6 6 6 8 11 15 17 13 11 11 9 10 12 7 1 2 4 13 17 16 17 19 20 23 24 23 23 23 24 25 26 26 26 26 28 29 29
18 17 17 18 18 18 18 18 18 18 19 18 19 19 19 21 24 26 25 23 22 21 20 18 16 15 13 11 10 9 8 8 8 6 6 6 5 5 5 4 4 4 3 4 5 6 7 8 8 7 6 7 11 15 18 17 15 11 4 3 6 5 4 3 9 15 14 14 17 19 21 24 24 23 24 25 26 27 26 26 26 26 27 27 26
18 17 16 17 16 17 17 17 17 17 17 17 17 18 19 23 24 24 23 22 21 19 18 16 14 14 13 12 11 10 9 9 8 7 6 6 6 5 6 6 6 5 4 5 7 8 9 9 10 8 7 9 12 15 17 19 20 13 5 2 2 3 2 6 16 14 9 13 15 18 23 25 24 23 26 28 28 27 26 27 27 25 25 24 23
18 17 16 16 16 17 17 17 17 16 16 16 17 19 23 25 25 24 22 21 20 18 17 16 14 15 14 14 13 11 10 10 9 8 7 7 6 7 8 8 8 7 6 8 9 10 10 11 11 10 11 11 12 14 15 18 22 18 12 4 2 3 2 8 13 7 6 12 12 17 24 25 23 23 28 30 29 28 27 28 27 25 26 24 22
17 16 17 16 16 16 17 17 17 16 16 17 19 23 27 28 27 26 24 21 19 17 17 17 15 16 15 15 13 11 10 10 10 9 8 8 8 9 9 9 10 10 9 9 10 11 11 12 12 12 13 12 12 16 17 17 19 21 19 14 9 7 4 8 6 4 9 8 7 17 24 24 21 22 29 31 30 29 27 28 27 26 27 25 24
17 17 17 17 16 17 17 17 17 16 17 19 22 25 27 27 27 26 24 22 19 17 17 16 15 16 16 15 13 11 10 10 10 10 9 8 9 10 10 11 11 11 10 10 12 13 15 16 16 17 19 18 18 22 21 18 19 20 20 19 17 17 14 12 5 4 7 4 8 18 21 22 19 20 29 30 29 28 26 28 27 27 28 25 26
19 18 18 18 18 18 18 18 18 17 18 20 22 25 26 25 24 23 22 21 20 20 18 16 16 16 16 14 13 12 10 9 9 9 9 8 9 10 11 12 12 13 13 15 18 19 20 20 21 22 23 23 23 23 21 20 19 17 17 18 17 18 20 19 13 8 4 4 10 15 19 23 16 17 27 29 28 26 25 27 26 27 28 26 27
21 20 20 20 20 20 20 19 18 18 18 20 22 24 24 24 24 23 22 21 21 21 19 17 17 16 16 15 14 13 11 10 9 9 9 9 9 11 11 12 13 15 17 19 20 20 20 20 20 21 22 23 22 21 21 21 20 17 17 17 16 17 19 20 20 15 8 5 6 9 20 25 17 17 25 28 27 23 22 24 25 26 26 26 29
22 22 23 22 22 21 21 20 18 17 17 19 21 22 22 22 23 23 23 23 22 22 20 19 18 17 17 16 15 15 13 12 10 10 10 10 11 12 13 14 14 16 17 18 18 18 19 19 19 20 21 22 21 21 22 23 23 23 22 21 18 17 15 16 17 16 11 7 5 7 16 21 17 18 25 28 25 21 20 22 25 26 25 26 30
23 24 24 24 23 23 22 21 19 17 17 18 21 21 21 21 21 21 22 23 22 21 21 20 19 19 19 18 17 15 14 13 11 12 12 13 14 15 16 16 16 16 17 17 17 17 18 19 19 20 20 21 20 21 23 23 23 24 24 24 22 20 17 14 15 15 11 7 6 6 12 18 16 19 26 26 23 19 17 21 26 26 25 28 31
Wind_Direction
147 145 144 147 144 141 137 137 134 132 130 129 128 125 122 118 118 117 118 119 117 111 102 96 93 95 94 96 97 98 98 98 99 99 100 101 102 101 97 92 91 90 86 85 81 72 70 69 73 84 89 87 85 94 99 97 96 100 105 103 100 101 99 99 99 98 97 100 99 95 93 92 93 95 92 82 83 87 88 89 89 87 81 79 79
147 145 145 146 143 140 137 136 134 132 129 129 128 126 124 121 121 118 118 116 112 106 101 98 95 96 96 97 97 97 98 99 100 100 101 103 105 102 97 93 91 88 86 90 79 65 68 69 70 81 89 95 91 100 107 100 98 98 103 103 99 97 95 93 89 86 85 92 99 99 98 94 94 93 86 79 82 85 84 82 84 91 89 88 84
143 145 145 145 143 140 138 136 135 131 128 129 128 128 126 124 123 118 114 110 107 104 102 100 97 97 97 98 98 99 99 100 101 101 103 106 108 104 99 94 91 89 85 83 71 59 64 68 70 77 84 95 95 106 114 111 109 103 102 104 102 100 96 93 88 83 77 79 88 97 100 98 95 90 87 81 80 80 77 69 67 81 87 86 85
143 144 143 145 143 140 137 136 136 132 130 130 130 130 129 126 121 114 110 107 106 105 104 101 100 99 97 99 99 101 100 101 102 103 105 107 109 106 104 101 95 89 81 74 65 60 60 63 69 75 83 96 100 109 117 116 116 112 107 105 106 105 98 94 90 82 70 64 71 84 91 98 93 85 87 82 80 74 67 68 63 74 83 79 80
143 142 144 146 144 141 139 138 135 132 131 132 133 133 131 125 118 113 110 109 108 106 106 104 101 100 99 101 101 102 102 103 104 105 107 108 108 106 107 102 94 88 83 74 66 67 62 60 65 73 91 106 111 115 120 118 117 116 113 110 110 110 107 106 103 87 67 54 55 72 77 83 83 80 83 80 81 79 75 78 70 74 83 79 77
143 143 146 145 145 143 140 138 134 133 134 134 135 134 129 123 119 115 113 110 109 109 108 106 103 102 102 102 104 106 106 106 107 109 110 110 108 107 106 100 94 89 84 75 68 71 67 64 64 75 99 114 118 121 122 122 121 118 116 114 111 109 109 112 112 96 77 75 60 67 72 73 78 81 81 81 84 85 85 82 75 69 73 83 82
144 145 146 145 144 143 141 138 133 135 136 136 135 131 127 122 120 117 116 112 110 111 110 109 106 106 105 105 106 107 108 108 109 110 112 114 114 111 106 101 95 89 81 76 74 74 67 65 68 82 107 119 121 123 123 122 121 118 115 112 109 105 100 98 90 68 86 118 126 82 75 69 78 89 86 83 86 91 89 80 77 60 62 86 86
144 147 146 143 141 142 143 139 135 137 137 136 133 129 125 123 122 119 117 113 113 113 111 111 108 107 106 107 107 108 109 110 111 112 114 115 116 112 107 103 97 93 89 89 86 80 72 67 74 93 114 124 124 124 123 121 119 116 114 110 104 98 89 79 70 72 126 149 150 119 84 60 65 89 96 92 90 93 88 75 68 54 66 83 80
145 147 146 142 139 141 141 140 138 138 137 135 131 129 126 124 123 120 119 116 115 113 113 113 111 111 109 110 110 109 108 110 114 114 116 114 114 113 112 111 111 106 98 96 91 84 77 71 83 103 121 128 128 127 124 122 120 117 113 107 100 91 82 75 78 104 131 141 137 121 86 52 49 80 100 101 98 89 67 64 54 54 73 80 75
146 145 144 140 138 142 141 141 141 139 137 133 131 130 128 127 124 122 120 118 117 116 117 117 116 116 114 113 112 111 107 110 113 115 121 124 124 123 121 119 121 113 105 106 96 86 78 73 86 109 127 133 133 131 128 126 122 118 112 104 97 89 83 79 89 117 121 125 124 110 81 44 42 66 95 99 99 91 68 64 45 56 78 84 81
143 142 140 138 139 142 141 142 141 138 135 133 133 131 131 130 126 123 121 120 120 120 122 122 122 120 116 114 113 111 107 109 111 118 125 131 136 133 138 139 131 118 122 123 103 90 81 74 85 108 128 137 139 136 133 131 126 121 113 103 96 91 86 82 92 120 130 135 128 102 77 38 34 45 66 71 78 79 70 68 55 70 78 75 80
140 139 136 137 139 141 141 141 140 136 135 134 133 133 133 131 127 125 125 125 125 126 128 127 125 119 116 113 111 109 107 111 115 129 130 136 147 145 148 154 150 133 134 130 109 94 83 77 81 99 121 137 142 141 139 135 131 124 114 103 98 97 89 81 87 123 152 155 146 115 67 31 25 28 28 18 33 43 60 67 70 84 84 70 71
138 136 136 137 138 139 139 139 138 136 135 135 134 134 133 132 130 130 131 132 132 132 131 127 122 118 116 112 110 108 109 115 118 127 131 147 164 167 155 156 159 143 137 134 117 101 87 79 80 87 107 133 144 145 144 140 135 126 116 106 101 98 86 75 72 115 173 178 171 157 21 12 17 18 18 17 20 30 59 58 64 90 98 86 73
138 136 135 135 133 135 137 137 138 136 136 137 137 136 135 135 135 136 137 137 135 133 129 125 121 118 115 110 112 111 112 114 112 112 108 120 144 162 161 158 152 142 140 139 127 113 98 87 81 82 91 122 144 149 148 144 138 127 117 107 102 95 81 69 58 75 185 193 195 190 323 0 12 12 13 15 12 22 44 36 47 80 85 86 72
139 135 133 131 131 134 136 138 139 138 139 140 140 140 140 141 142 142 140 137 135 132 130 126 122 116 108 106 109 108 100 89 82 87 87 83 93 114 138 148 145 142 142 140 135 126 112 99 90 86 85 105 135 152 153 149 141 130 120 108 101 93 80 63 54 50 187 198 207 213 292 347 3 5 8 8 2 2 6 17 29 46 62 86 70
136 134 133 134 135 138 140 141 142 143 143 142 143 143 144 147 146 143 138 137 136 134 131 125 118 108 99 99 99 94 84 72 63 69 73 67 72 88 104 129 142 143 141 141 141 136 121 108 101 92 87 94 112 139 153 155 149 137 128 116 104 94 79 59 53 33 346 200 212 227 265 328 352 2 7 4 355 350 350 2 12 22 49 100 95
133 134 135 138 141 142 143 145 147 147 145 145 146 147 149 149 145 140 139 139 138 135 129 119 110 101 96 95 94 90 82 73 67 71 72 67 69 79 92 109 129 137 140 143 144 141 127 112 107 98 91 89 96 113 132 152 166 164 152 130 108 92 75 55 47 24 350 209 219 235 245 305 339 1 7 1 352 344 346 349 1 11 15 80 118
133 135 137 140 144 145 146 148 149 149 148 148 149 151 151 147 143 142 142 141 137 131 123 114 108 103 99 96 97 94 86 78 74 75 73 70 68 71 84 99 115 129 138 143 146 145 131 116 109 102 96 93 93 100 108 120 147 175 170 149 119 95 73 42 29 16 344 237 227 236 242 289 325 354 2 359 353 344 345 347 353 354 329 328 331
134 136 138 143 146 147 151 151 152 152 151 151 150 152 151 147 144 145 143 139 135 128 121 117 114 111 103 100 101 94 88 83 81 80 76 71 67 67 74 86 102 117 133 143 148 147 136 126 113 104 100 97 100 104 106 108 111 140 173 179 153 104 35 2 6 10 351 279 239 241 250 281 310 339 354 355 356 346 343 345 347 344 323 324 348
133 138 140 145 148 151 154 155 158 157 155 152 151 151 149 148 146 147 145 141 136 129 128 127 125 119 107 100 100 95 88 83 81 81 80 75 70 68 70 80 91 105 123 138 147 150 141 132 118 109 99 90 98 115 115 106 105 109 109 269 270 276 297 313 335 358 355 323 255 251 257 277 301 327 345 351 354 346 341 341 342 339 333 335 350
132 140 145 150 153 155 157 159 161 159 157 153 153 150 148 152 151 152 150 145 139 137 138 136 133 126 113 101 95 93 87 81 76 73 78 78 75 72 71 77 84 96 113 132 145 151 147 147 143 136 73 36 29 160 141 92 70 60 8 333 305 282 292 308 324 341 344 337 279 268 268 275 294 316 330 340 346 342 336 334 335 332 328 333 312
134 144 151 158 158 158 160 160 162 162 159 156 154 151 153 158 157 159 153 144 141 142 144 136 131 122 112 100 91 90 85 77 68 61 63 68 72 75 77 79 83 90 100 115 129 140 147 160 196 273 284 302 332 303 232 343 355 335 329 337 338 320 311 319 333 335 334 330 298 279 273 273 288 302 314 326 331 331 329 327 327 322 319 317 285
142 152 160 166 164 162 164 163 163 165 165 161 160 158 160 164 164 162 148 141 140 141 143 136 131 120 104 91 83 85 79 68 60 59 54 53 54 61 72 81 86 87 90 93 93 94 89 43 1 345 326 312 323 327 299 309 323 323 319 327 337 334 325 318 320 323 323 319 305 285 277 277 286 294 304 314 318 320 322 321 320 315 308 300 281
153 161 163 167 168 167 169 171 170 170 171 168 167 165 164 169 168 158 147 147 146 141 142 140 136 123 105 99 94 104 107 78 62 62 46 38 34 36 44 52 66 70 74 79 78 70 45 20 4 357 352 339 329 328 321 317 316 311 303 307 320 325 323 315 308 309 311 308 301 289 282 283 287 294 303 308 310 312 316 317 315 311 303 295 281
159 161 161 165 170 172 174 176 179 180 179 175 171 169 168 172 168 155 150 153 155 149 148 152 151 135 125 129 130 130 127 106 74 333 314 345 3 2 1 360 358 3 15 32 50 32 14 5 360 355 347 337 330 329 329 329 325 311 294 289 298 313 321 319 313 313 313 306 295 288 286 289 293 298 304 306 307 307 310 311 311 309 303 296 282
156 158 161 166 173 176 176 178 183 185 185 181 174 171 170 170 164 156 155 158 162 156 150 163 165 151 145 152 156 158 160 185 231 270 296 314 335 335 335 337 338 341 346 354 357 357 358 359 356 352 345 337 333 336 340 340 335 321 302 291 294 303 314 318 318 317 317 310 295 290 293 297 300 301 303 304 305 303 303 305 305 305 302 297 287
156 162 165 168 177 178 179 184 185 185 185 182 177 174 171 165 158 157 159 159 161 156 144 149 152 151 159 169 170 180 206 224 240 271 295 307 311 317 344 347 345 346 351 352 349 351 357 3 2 357 351 341 337 341 347 346 341 337 328 320 314 309 310 313 315 315 315 314 304 299 301 302 303 302 302 303 303 301 299 299 299 298 297 293 288
160 167 170 171 177 179 181 185 185 185 183 180 176 174 169 164 163 164 162 163 169 164 149 147 150 156 168 179 180 194 219 229 250 287 296 306 298 304 2 2 357 353 357 357 354 354 358 4 2 359 356 346 342 340 339 341 343 345 343 339 331 318 311 309 310 311 308 307 306 305 304 305 305 303 303 304 303 301 298 296 295 294 292 291 286
165 168 171 173 175 175 179 183 183 180 176 174 173 171 171 173 181 184 185 196 201 182 162 161 166 167 171 185 191 186 175 143 98 52 69 52 10 358 20 18 6 355 0 4 2 356 350 357 358 358 356 345 339 335 332 336 340 340 335 332 327 319 314 310 309 308 304 301 302 303 302 303 305 305 305 305 304 302 300 297 295 293 290 289 284
170 168 168 171 171 170 175 180 180 176 172 171 174 176 184 191 198 198 201 206 195 176 171 176 183 180 182 191 187 166 143 117 90 69 62 62 30 348 16 24 10 5 11 7 353 339 336 345 345 345 343 329 324 324 326 331 338 340 333 328 324 321 320 319 316 315 313 310 307 306 305 305 305 308 308 307 306 303 302 301 297 294 291 288 283
170 169 168 168 168 171 178 182 183 183 180 178 182 187 190 190 188 190 189 181 173 171 177 187 189 189 197 196 185 166 145 123 103 82 64 51 8 337 5 14 14 10 4 360 346 332 335 341 332 328 330 325 323 321 323 327 333 338 333 328 325 321 320 321 321 318 318 316 314 313 312 310 308 310 311 310 309 306 306 306 303 298 293 288 284
172 171 169 168 171 176 181 184 186 190 189 186 188 187 184 179 175 178 179 171 171 177 188 195 191 192 201 193 182 166 147 129 114 103 90 60 14 333 322 67 55 5 348 341 326 315 322 331 326 323 323 321 322 318 316 319 324 327 327 326 324 321 320 319 316 313 314 314 313 312 314 315 314 314 312 312 312 310 309 310 308 305 299 293 287
173 173 172 172 175 176 176 176 179 183 182 181 182 180 178 176 172 176 176 171 176 188 194 196 195 194 190 180 174 156 139 134 125 118 113 72 340 263 182 165 113 5 329 295 294 302 306 316 326 327 321 320 323 324 322 320 320 319 319 321 321 321 321 319 318 314 313 314 313 310 311 313 315 316 315 316 317 316 314 312 311 308 305 300 293
169 172 173 172 173 172 171 171 172 173 173 176 178 179 180 178 176 177 177 176 181 191 196 199 197 191 178 170 170 152 134 136 134 125 115 92 332 157 142 146 88 38 335 284 293 311 311 320 331 328 328 334 337 343 341 334 327 322 318 318 316 315 315 316 318 316 315 315 314 314 313 313 315 317 319 320 319 318 316 316 317 314 311 308 303
168 170 171 170 170 171 171 172 172 172 172 176 178 180 182 181 181 180 180 182 185 190 195 194 188 181 173 163 159 148 131 124 111 103 103 108 133 126 136 136 106 73 32 321 305 318 333 346 343 337 340 345 346 350 349 341 332 325 322 319 316 313 312 314 317 317 318 318 317 318 320 321 322 322 322 321 319 318 317 317 319 319 317 313 310
170 170 170 170 170 170 172 173 173 172 171 175 178 180 180 179 179 176 174 179 183 185 181 177 171 166 167 159 148 134 119 114 104 101 110 126 129 115 111 111 101 75 59 42 11 11 16 13 10 1 359 0 354 347 342 336 330 326 324 320 318 316 316 320 321 319 317 317 321 323 326 329 328 327 326 324 322 320 318 315 315 318 318 315 311
171 170 169 169 169 167 171 173 173 172 171 173 175 175 175 173 174 169 167 169 170 167 163 163 157 151 149 141 127 114 109 113 116 116 121 123 116 107 98 92 83 61 53 41 32 30 21 21 27 22 20 16 3 348 338 334 330 323 320 319 318 320 326 331 329 327 323 323 328 331 334 336 335 335 333 330 327 325 322 318 316 316 315 313 311
170 171 169 169 169 167 170 172 171 172 172 172 169 166 166 166 166 162 160 159 153 146 143 140 133 128 124 117 111 108 111 117 119 120 118 112 106 100 91 81 66 53 44 34 32 26 21 21 24 32 32 20 8 355 341 335 329 321 318 318 318 324 340 354 3 7 6 4 2 360 359 1 2 0 357 351 344 341 339 334 332 331 326 320 316
165 167 166 168 169 167 170 172 171 171 170 169 164 160 159 158 156 153 151 147 138 130 126 123 120 119 117 113 112 111 114 118 118 120 118 110 100 84 72 59 43 33 23 18 16 9 10 12 11 21 24 17 7 354 343 334 327 320 318 315 316 332 2 38 41 40 41 38 33 27 24 24 24 25 23 20 17 19 16 7 4 5 2 351 339
158 163 163 166 169 168 168 170 170 170 166 164 161 158 155 151 149 144 138 133 128 125 122 120 120 120 120 119 120 116 113 112 109 112 113 110 100 71 53 44 17 348 349 3 12 6 358 360 2 0 357 356 352 347 343 336 326 321 319 313 315 333 25 78 46 41 41 35 32 27 25 25 24 25 25 25 26 29 28 23 21 24 23 17 7
153 160 160 163 169 170 169 168 167 168 166 163 161 158 153 148 144 136 129 124 125 124 121 121 120 120 122 121 120 115 112 108 101 100 101 103 105 97 69 59 31 351 10 26 25 13 359 357 2 4 358 357 1 358 350 342 339 337 329 324 328 333 123 156 21 31 29 24 23 19 18 18 17 18 15 15 18 18 19 19 22 28 28 23 20
151 158 160 161 166 170 171 169 166 166 166 164 161 158 155 151 142 134 127 123 124 125 123 121 121 120 118 116 114 112 113 107 101 102 100 94 90 89 76 69 70 64 68 57 38 25 15 8 3 11 21 25 27 19 8 5 4 353 334 330 337 339 326 240 348 18 21 21 17 14 13 12 13 14 9 7 9 10 13 16 21 30 29 24 26
151 157 158 160 164 167 171 169 165 164 164 162 161 158 154 149 140 133 129 126 125 127 125 123 124 120 113 110 109 106 106 101 99 98 95 89 79 77 76 80 85 79 81 66 49 39 30 26 22 27 45 51 46 35 29 33 23 6 351 354 357 344 332 342 341 351 12 20 13 11 8 8 14 13 9 9 9 10 15 17 23 29 26 22 25
148 153 156 161 164 167 169 167 164 165 163 164 166 161 150 143 137 134 135 132 128 129 127 123 125 121 110 104 99 97 98 96 96 92 88 87 84 90 93 95 95 87 82 70 59 52 43 39 37 43 59 62 56 46 44 46 40 34 26 335 346 3 359 346 332 327 3 14 8 11 6 8 16 14 12 13 13 15 18 19 25 26 20 20 20
147 153 159 166 166 167 168 167 166 166 165 164 163 157 147 140 136 134 135 132 130 132 129 123 120 116 107 100 97 96 97 96 96 91 88 92 95 103 106 104 100 90 82 77 70 59 50 48 49 58 67 66 63 57 53 51 51 55 57 42 359 10 326 334 332 311 344 356 4 9 6 12 18 14 13 14 15 18 18 19 23 19 15 20 15
152 157 162 170 169 166 166 166 165 164 164 161 155 152 150 146 142 140 139 137 133 132 131 125 118 113 108 107 104 99 97 96 96 93 92 98 102 105 106 103 95 88 85 78 68 57 54 59 61 67 69 66 70 65 58 56 59 62 63 69 65 50 10 345 347 306 329 344 5 360 3 13 16 14 13 13 14 16 17 17 17 13 13 19 11
155 157 163 172 172 166 162 162 159 157 159 158 155 155 153 150 148 149 149 145 137 130 130 125 118 116 114 112 106 99 97 96 94 92 94 100 103 104 102 98 91 84 79 70 66 66 69 72 70 71 72 70 72 68 60 58 61 59 60 67 65 56 47 36 33 324 327 329 347 352 1 9 10 12 11 11 11 11 15 16 11 9 12 14 6
155 157 166 169 166 160 155 154 151 151 153 155 160 160 157 153 152 152 150 147 142 134 131 127 123 121 115 109 103 100 99 95 91 88 92 98 101 105 101 97 90 80 75 74 76 77 77 76 73 73 73 69 68 68 62 54 52 50 52 61 63 55 50 48 41 22 359 311 332 346 353 356 4 9 5 7 8 8 12 12 7 7 10 8 0
156 161 165 159 155 152 150 150 150 154 156 158 162 162 160 159 157 153 147 145 143 138 135 130 126 123 115 108 104 101 98 94 90 86 91 96 99 105 105 101 93 84 82 81 80 79 77 74 72 72 72 69 68 68 64 59 59 60 59 62 64 56 51 48 41 34 27 346 333 338 340 345 353 358 359 2 3 6 11 7 5 7 7 2 356
158 160 158 152 149 148 148 148 145 150 158 163 166 164 163 162 159 154 147 144 142 139 135 130 126 123 116 110 103 98 94 91 90 88 92 99 102 106 107 103 98 93 89 85 83 82 79 76 73 74 74 72 71 69 69 71 72 72 69 66 64 57 51 44 38 34 28 10 343 332 339 342 338 337 349 356 356 2 8 3 4 7 3 357 354
158 156 152 149 148 146 145 141 138 143 150 158 163 163 164 163 160 156 150 147 145 141 136 132 129 124 116 110 103 96 93 91 94 96 98 104 106 106 105 102 100 98 94 90 88 86 84 81 77 76 75 73 72 71 72 74 74 72 70 67 64 61 57 51 43 39 36 22 351 332 338 338 327 324 339 348 351 360 4 359 2 3 357 353 352